Weather History for KSHN - November, 2013

Change the Weather History Date:

Sunday, November 24, 2013

  Actual Average Record
Temperature  
Mean Temperature 32 °F -  
Max Temperature 39 °F 48 °F 65 °F (1968)
Min Temperature 24 °F 34 °F 7 °F (1985)
Degree Days  
Heating Degree Days 34    
Moisture  
Dew Point 29 °F    
Average Humidity 95    
Maximum Humidity 100    
Minimum Humidity 89    
Precipitation  
Precipitation 0.00 in - - ()
Sea Level Pressure  
Sea Level Pressure 30.19 in    
Wind  
Wind Speed 1 mph (East)    
Max Wind Speed 6 mph    
Max Gust Speed -    
Visibility 3 miles    
Events Fog    
Averages and records for this station are not official NWS values.
T = Trace of Precipitation, MM = Missing Value Source: NWS Daily Summary

Daily Weather History Graph

Daily Weather History Graph

Search for Another Location

Airport or City:

Trip Planner

Search our weather history database for the weather conditions in past years. The results will help you decide how hot, cold, wet, or windy it might be!

Date:

Astronomy

Nov. 24, 2013 Rise Set
Actual Time 7:29 AM PST 4:28 PM PST
Civil Twilight 6:55 AM PST 5:02 PM PST
Nautical Twilight 6:17 AM PST 5:40 PM PST
Astronomical Twilight 5:41 AM PST 6:17 PM PST
Moon 11:13 PM PST (11/24) 12:08 PM PST (11/24)
Length of Visible Light 10h 07m
Length of Day
8h 58m
Waning Gibbous, 59% of the Moon is Illuminated
Nov 24
Waning Gibbous
Nov 25
Last Quarter
Dec 2
New
Dec 9
First Quarter
Dec 17
Full

Hourly Weather History & Observations

Time (PST) Temp. Windchill Dew Point Humidity Pressure Visibility Wind Dir Wind Speed Gust Speed Precip Events Conditions
12:53 AM 28.9 °F - 26.1 °F 89% 30.19 in 8.0 mi Calm Calm - N/A   Clear
1:51 AM 28.4 °F - 26.6 °F 93% 30.17 in 9.0 mi Calm Calm - N/A   Partly Cloudy
1:53 AM 28.0 °F - 26.1 °F 92% 30.19 in 6.0 mi Calm Calm - N/A   Partly Cloudy
2:42 AM 27.0 °F - 25.0 °F 92% 30.17 in 9.0 mi Calm Calm - N/A   Mostly Cloudy
2:53 AM 27.0 °F 23.0 °F 25.0 °F 92% 30.18 in 9.0 mi NNW 3.5 mph - N/A   Mostly Cloudy
3:10 AM 26.1 °F - 25.0 °F 96% 30.17 in 9.0 mi Calm Calm - N/A   Scattered Clouds
3:33 AM 26.1 °F - 25.0 °F 96% 30.16 in 1.8 mi Calm Calm - N/A   Partly Cloudy
3:36 AM 26.1 °F - 25.0 °F 96% 30.16 in 0.8 mi Calm Calm - N/A   Mist
3:53 AM 25.0 °F - 23.0 °F 92% 30.17 in 1.0 mi Calm Calm - N/A   Mist
4:00 AM 25.0 °F - 23.0 °F 92% 30.15 in 3.0 mi Calm Calm - N/A   Overcast
4:08 AM 25.0 °F - 23.0 °F 92% 30.15 in 1.8 mi Calm Calm - N/A   Overcast
4:17 AM 25.0 °F - 23.0 °F 92% 30.15 in 0.8 mi Calm Calm - N/A   Mist
4:23 AM 26.1 °F - 24.1 °F 92% 30.15 in 2.0 mi Calm Calm - N/A   Overcast
4:31 AM 26.1 °F - 24.1 °F 92% 30.15 in 7.0 mi Calm Calm - N/A   Mostly Cloudy
4:37 AM 26.1 °F - 24.1 °F 92% 30.15 in 2.0 mi Calm Calm - N/A   Scattered Clouds
4:40 AM 25.0 °F - 24.1 °F 96% 30.15 in 1.0 mi Calm Calm - N/A   Mist
4:53 AM 25.0 °F - 24.1 °F 96% 30.17 in 0.8 mi Calm Calm - N/A   Clear
4:58 AM 24.1 °F - 23.0 °F 96% 30.16 in 1.0 mi Calm Calm - N/A   Mist
5:12 AM 26.1 °F - 24.1 °F 92% 30.15 in 0.2 mi Calm Calm - N/A Fog Light Freezing Fog
5:23 AM 26.1 °F - 24.1 °F 92% 30.15 in 3.0 mi Calm Calm - N/A   Mostly Cloudy
5:31 AM 26.1 °F - 25.0 °F 96% 30.15 in 0.8 mi Calm Calm - N/A   Mist
5:44 AM 26.1 °F - 24.1 °F 92% 30.15 in 2.0 mi Calm Calm - N/A   Mostly Cloudy
5:53 AM 26.1 °F - 25.0 °F 96% 30.18 in 6.0 mi Calm Calm - N/A   Overcast
6:11 AM 27.0 °F - 25.0 °F 92% 30.16 in 10.0 mi Calm Calm - N/A   Scattered Clouds
6:53 AM 28.0 °F - 26.1 °F 92% 30.18 in 10.0 mi Calm Calm - N/A   Clear
7:34 AM 27.0 °F - 26.1 °F 96% 30.17 in 10.0 mi Calm Calm - N/A   Scattered Clouds
7:45 AM 27.0 °F - 25.0 °F 92% 30.17 in 10.0 mi Calm Calm - N/A   Mostly Cloudy
7:53 AM 28.0 °F - 26.1 °F 92% 30.20 in 10.0 mi Calm Calm - N/A   Mostly Cloudy
8:10 AM 28.9 °F - 27.0 °F 92% 30.19 in 9.0 mi Calm Calm - N/A   Partly Cloudy
8:41 AM 28.0 °F - 26.1 °F 92% 30.19 in 9.0 mi Calm Calm - N/A   Mostly Cloudy
8:44 AM 28.9 °F - 27.0 °F 92% 30.19 in 1.8 mi Calm Calm - N/A   Mostly Cloudy
8:53 AM 30.0 °F - 28.9 °F 96% 30.22 in 0.2 mi Calm Calm - N/A Fog Light Freezing Fog
9:53 AM 34.0 °F 31.0 °F 34.0 °F 100% 30.21 in 0.2 mi East 3.5 mph - N/A Fog Fog
10:53 AM 36.0 °F 32.1 °F 35.1 °F 97% 30.22 in 0.2 mi ESE 4.6 mph - N/A Fog Fog
11:53 AM 37.0 °F 34.5 °F 37.0 °F 100% 30.21 in 0.2 mi ENE 3.5 mph - N/A Fog Fog
12:53 PM 37.9 °F 35.5 °F 37.0 °F 97% 30.20 in 0.5 mi ENE 3.5 mph - N/A Fog Fog
1:06 PM 37.9 °F 34.4 °F 37.0 °F 97% 30.18 in 1.8 mi East 4.6 mph - N/A   Overcast
1:16 PM 37.9 °F 35.5 °F 37.0 °F 97% 30.18 in 2.0 mi ENE 3.5 mph - N/A   Overcast
1:28 PM 39.0 °F 36.8 °F 37.9 °F 96% 30.18 in 1.5 mi East 3.5 mph - N/A   Overcast
1:39 PM 39.0 °F 35.7 °F 37.9 °F 96% 30.18 in 2.5 mi East 4.6 mph - N/A   Overcast
1:53 PM 39.0 °F 34.8 °F 37.9 °F 96% 30.20 in 3.0 mi East 5.8 mph - N/A   Overcast
2:03 PM 37.9 °F 35.5 °F 37.9 °F 100% 30.18 in 2.0 mi SE 3.5 mph - N/A   Overcast
2:17 PM 39.0 °F 35.7 °F 37.9 °F 96% 30.17 in 4.0 mi East 4.6 mph - N/A   Overcast
2:33 PM 39.0 °F 36.8 °F 37.9 °F 96% 30.17 in 2.5 mi ESE 3.5 mph - N/A   Overcast
2:43 PM 39.0 °F 35.7 °F 37.9 °F 96% 30.18 in 4.0 mi East 4.6 mph - N/A   Overcast
2:53 PM 39.9 °F 37.8 °F 37.9 °F 93% 30.20 in 4.0 mi East 3.5 mph - N/A   Overcast
3:33 PM 39.0 °F - 37.9 °F 96% 30.19 in 2.0 mi Calm Calm - N/A   Overcast
3:40 PM 39.0 °F - 37.9 °F 96% 30.18 in 1.5 mi Calm Calm - N/A   Overcast
3:53 PM 39.0 °F - 37.9 °F 96% 30.21 in 0.5 mi Calm Calm - N/A Fog Fog
4:53 PM 37.0 °F - 36.0 °F 96% 30.22 in 0.2 mi Calm Calm - N/A Fog Fog
5:53 PM 36.0 °F 33.3 °F 35.1 °F 97% 30.22 in 0.2 mi North 3.5 mph - N/A Fog Fog
6:53 PM 33.1 °F - 32.0 °F 96% 30.24 in 0.2 mi Calm Calm - N/A Fog Fog
7:53 PM 30.9 °F - 30.0 °F 96% 30.25 in 0.2 mi Calm Calm - N/A Fog Light Freezing Fog
8:33 PM 30.9 °F - 30.0 °F 96% 30.23 in 1.2 mi Calm Calm - N/A   Scattered Clouds
8:38 PM 30.9 °F - 30.0 °F 96% 30.23 in 3.0 mi Calm Calm - N/A   Scattered Clouds
8:53 PM 30.9 °F - 30.0 °F 96% 30.25 in 6.0 mi Calm Calm - N/A   Clear
9:25 PM 28.9 °F - 28.0 °F 96% 30.23 in 1.8 mi Calm Calm - N/A   Clear
9:49 PM 30.2 °F - 28.4 °F 93% 30.23 in 3.0 mi Calm Calm - N/A   Clear
9:53 PM 30.0 °F - 28.9 °F 96% 30.25 in 5.0 mi Calm Calm - N/A   Partly Cloudy
10:10 PM 30.0 °F - 28.0 °F 92% 30.23 in 6.0 mi Calm Calm - N/A   Mostly Cloudy
10:20 PM 30.0 °F - 28.0 °F 92% 30.23 in 2.5 mi Calm Calm - N/A   Mostly Cloudy
10:33 PM 30.0 °F - 28.0 °F 92% 30.23 in 3.0 mi Calm Calm - N/A   Mostly Cloudy
10:35 PM 30.0 °F - 28.0 °F 92% 30.23 in 2.0 mi Calm Calm - N/A   Mostly Cloudy
10:41 PM 28.9 °F - 28.0 °F 96% 30.23 in 0.8 mi Calm Calm - N/A   Mostly Cloudy
10:53 PM 28.9 °F - 27.0 °F 92% 30.25 in 0.5 mi Calm Calm - N/A Fog Light Freezing Fog
11:12 PM 28.9 °F - 28.0 °F 96% 30.23 in 1.2 mi Calm Calm - N/A   Scattered Clouds
11:21 PM 28.9 °F - 27.0 °F 92% 30.24 in 2.0 mi Calm Calm - N/A   Mostly Cloudy
11:28 PM 28.9 °F - 28.0 °F 96% 30.24 in 3.0 mi Calm Calm - N/A   Mostly Cloudy
11:53 PM 28.9 °F - 28.0 °F 96% 30.26 in 3.0 mi Calm Calm - N/A   Overcast